Regional Weather Roundup
Issued by NWS

Home | Current Version | Previous Version | Graphics & Text | Print | Product List | Glossary On
Versions: 1 2 3 4 5 6 7 8 9 10 11 12 13 14 15 16 17 18 19 20 21 22 23 24 25 26 27 28 29 30 31 32 33 34 35 36 37 38 39 40 41 42 43 44 45 46 47 48 49 50
000
ASUS43 KIND 271809
RWRIN

WEATHER ROUNDUP FOR INDIANA
NATIONAL WEATHER SERVICE INDIANAPOLIS IN
200 PM EDT MON APR 27 2015

NOTE: "FAIR" INDICATES FEW OR NO CLOUDS BELOW 12,000 FEET WITH NO
SIGNIFICANT WEATHER AND/OR OBSTRUCTIONS TO VISIBILITY.

* - STATION DOES NOT REPORT WEATHER SUCH AS PRECIPITATION OR FOG.

+ - STATION NOT QUALITY CONTROLLED BY THE NATIONAL WEATHER SERVICE.
    USE DATA WITH CAUTION...ESPECIALLY DEWPOINT AND RELATIVE
    HUMIDITY OBSERVATIONS.

INZ001>003-010>013-019-020-271900-
NORTHWEST INDIANA

CITY           SKY/WX    TMP DP  RH WIND       PRES   REMARKS
GARY /AIRPORT/ MOSUNNY   50  32  50 W17G29    30.13F
KNOX *+        SUNNY     52  19  28 N21       30.07S
LA PORTE +     SUNNY     49  38  64 N20G26    30.10S
6HR MIN TEMP:  42; 6HR MAX TEMP:  51;

MICHIGAN CITY+ SUNNY     46  32  57 N18G25    30.12S
MONTICELLO +   PTSUNNY   55  37  49 N16G23    30.05S
6HR MIN TEMP:  38; 6HR MAX TEMP:  55;

VALPARAISO     MOSUNNY   51  35  54 N16G24    30.10F
6HR MIN TEMP:  40; 6HR MAX TEMP:  51;


$$

LMZ046-743>745-271900-
SOUTHERN LAKE MICHIGAN

STATION/POSITION TIME  TEMP    WIND        PRES    WAVE
                       AIR SEA DIR/SP/G            HT
                 (UTC) (F)     (DEG/KT/KT) (MB)    (FT)
BURNS HARBOR     1800   43     360/ 14/ 19 1020.7S
MICHIGAN CITY    1800   42     330/ 20/ 22   N/A
5NW MICH CITY    1800   41 45  350/ 16/ 19   N/A     5

$$

INZ004-005-014>016-021>024-271900-
NORTH CENTRAL INDIANA

CITY           SKY/WX    TMP DP  RH WIND       PRES   REMARKS
ELKHART        CLOUDY    50  32  50 NW7       30.06S
GOSHEN         CLOUDY    52  37  56 N16       30.04S
6HR MIN TEMP:  40; 6HR MAX TEMP:  53;

LOGANSPORT +   CLOUDY    52  32  46 N16G22    30.04F
PERU/GRISSOM   CLOUDY    53  37  55 N18       30.02F
6HR MIN TEMP:  40; 6HR MAX TEMP:  55;

ROCHESTER +    PTSUNNY   55  37  50 N14G20    30.05S
SOUTH BEND     SUNNY     52  37  56 N17G23    30.08S
6HR MIN TEMP:  40; 6HR MAX TEMP:  52;

WARSAW +       CLOUDY    52  36  54 N7        30.03F

$$

INZ006>009-017-018-025>027-271900-
NORTHEAST INDIANA

CITY           SKY/WX    TMP DP  RH WIND       PRES   REMARKS
ANGOLA *+      CLOUDY    48  34  57 N9        30.04S
AUBURN +       CLOUDY    52  34  50 N12       30.03S
FORT WAYNE     CLOUDY    53  37  54 N13       30.02S
6HR MIN TEMP:  40; 6HR MAX TEMP:  55;

HUNTINGTON +   CLOUDY    52  36  54 N9        30.02S
6HR MIN TEMP:  40; 6HR MAX TEMP:  54;


$$

INZ028-029-035-036-043>045-051>053-271900-
WEST CENTRAL INDIANA

CITY           SKY/WX    TMP DP  RH WIND       PRES   REMARKS
CRAWFORDSVL +  CLOUDY    52  31  44 N13G23    30.06S
6HR MIN TEMP:  36; 6HR MAX TEMP:  54;

GREENCASTLE +  MOSUNNY   55  32  41 N16       30.06S
LAFAYETTE      MOSUNNY   55  37  50 N15G25    30.06S
6HR MIN TEMP:  36; 6HR MAX TEMP:  55;

TERRE HAUTE    MOSUNNY   58  39  49 N13G18    30.06F
6HR MIN TEMP:  40; 6HR MAX TEMP:  59;


$$

INZ030>032-037>040-046>048-054>057-064-065-271900-
CENTRAL INDIANA

CITY           SKY/WX    TMP DP  RH WIND       PRES   REMARKS
ANDERSON       CLOUDY    54  32  43 NW12G17   30.03R
CP ATTERBURY + SUNNY     59  37  44 NW15      30.02F
COLUMBUS       MOSUNNY   57  34  41 NW10      30.02S
FISHERS *+     CLOUDY    54  39  58 NW10      30.04R
FRANKFORT +    PTSUNNY   54  38  56 NW13G24   30.06S
6HR MIN TEMP:  38; 6HR MAX TEMP:  54;

GREENWOOD *+   MOSUNNY   57  36  44 NW12G17   30.03F
INDIANAPOLIS   PTSUNNY   56  37  49 N16G24    30.03S
6HR MIN TEMP:  39; 6HR MAX TEMP:  57;

-EAGLE CREEK   PTSUNNY   54  37  52 N15G24    30.03S
6HR MIN TEMP:  38; 6HR MAX TEMP:  56;

KOKOMO *+      PTSUNNY   54  37  54 N15       30.02S
MARION +       CLOUDY    53  36  51 N12G17    30.02S
MT COMFORT *+  MOSUNNY   55  30  38 N17       30.03S
SHELBYVILLE    MOSUNNY   60  39  45 NW9G21    30.02R
6HR MIN TEMP:  41; 6HR MAX TEMP:  60;

ZIONSVILLE +   CLOUDY    54  37  52 NW14G21   30.05R
6HR MIN TEMP:  38; 6HR MAX TEMP:  55;


$$

INZ033-034-041-042-049-050-058-059-271900-
EAST CENTRAL INDIANA

CITY           SKY/WX    TMP DP  RH WIND       PRES   REMARKS
MUNCIE         PTSUNNY   54  38  54 N12       30.01S
6HR MIN TEMP:  38; 6HR MAX TEMP:  56;


$$

INZ060-061-067>069-081>083-085>088-271900-
SOUTHWEST INDIANA

CITY           SKY/WX    TMP DP  RH WIND       PRES   REMARKS
EVANSVILLE     PTSUNNY   60  37  42 N9        30.05F
6HR MIN TEMP:  45; 6HR MAX TEMP:  60;

HUNTINGBURG *+ MOSUNNY   61  39  44 N8        30.04F
6HR MIN TEMP:  43; 6HR MAX TEMP:  61;

WASHINGTON +   FAIR      60  32  35 NW12G21   30.04F
6HR MIN TEMP:  40; 6HR MAX TEMP:  60;


$$

INZ062-063-066-070>080-084-089>092-271900-
SOUTH CENTRAL AND SOUTHEAST INDIANA

CITY           SKY/WX    TMP DP  RH WIND       PRES   REMARKS
BEDFORD +      SUNNY     59  32  36 NW8G17    30.02F
BLOOMINGTON    SUNNY     59  37  44 NW10G20   30.02F
6HR MIN TEMP:  40; 6HR MAX TEMP:  60;

MADISON *+     SUNNY     59  32  36 N7        30.02F
NORTH VERNON + SUNNY     59  37  44 NW10      30.01F
SEYMOUR +      SUNNY     61  37  41 NW6       30.01F

$$



USA.gov is the U.S. government's official web portal to all federal, state and local government web resources and services.